Wind_Speed
14 14 13 13 13 13 14 13 13 14 13 14 14 13 13 13 13 12 12 12 12 12 12 13 13 12 11 9 9 9 12 13 12 8 9 12 14 13 8 13 17 18 18 12 12 11 9 10 10 11 8 6 4 3 4 4 2 2 1 1 1 1 2 2 3 4 5 6 6 6 4 7 6 4 2 2 5 12 10 9 10 12 13 15 22 30 31 31
14 14 14 14 14 14 14 14 14 14 14 14 14 14 14 13 13 12 13 13 12 12 12 13 13 12 10 8 8 8 12 13 11 11 16 14 9 16 16 13 16 19 18 15 17 15 10 8 10 9 6 4 4 4 4 4 3 2 1 1 1 1 1 1 0 2 4 8 8 7 6 6 7 5 1 4 8 12 12 12 14 16 16 18 25 28 28 31
14 14 13 14 14 14 15 15 15 15 14 14 14 14 14 14 14 13 13 12 12 12 13 13 13 11 8 7 6 8 11 10 6 9 10 11 13 18 20 14 14 19 20 19 20 20 15 13 13 10 6 5 3 4 5 3 3 2 1 2 1 1 2 3 2 2 2 10 11 8 8 6 7 6 2 7 11 13 14 14 16 18 19 19 20 24 28 28
14 13 13 14 14 15 15 15 16 16 16 15 15 15 14 14 14 14 13 12 12 13 13 13 12 9 6 5 5 7 8 5 2 5 3 6 16 20 21 16 14 18 20 19 19 19 14 10 10 8 6 5 2 4 5 4 3 2 2 2 1 2 3 3 4 4 2 8 12 9 10 7 5 4 4 8 10 11 13 15 18 21 22 20 18 22 25 24
14 14 14 15 15 15 15 16 16 16 17 16 16 15 15 14 14 14 13 12 12 13 13 12 12 8 4 3 3 7 5 1 2 3 3 4 13 19 22 17 15 16 17 17 15 13 10 6 4 5 5 4 3 3 3 6 4 1 1 1 1 1 3 1 2 3 3 2 8 10 10 8 4 3 4 9 9 8 12 16 20 21 20 20 20 20 22 21
15 16 16 16 16 16 17 16 16 16 17 17 16 16 15 14 14 13 12 13 13 13 12 11 11 6 1 1 2 4 2 1 4 2 3 3 11 16 19 18 16 16 16 16 13 8 6 5 3 5 5 3 6 5 4 8 6 2 2 2 1 0 2 2 2 3 1 0 4 6 7 7 8 6 3 5 4 5 13 19 19 20 21 23 22 20 19 18
16 17 17 17 17 18 18 18 17 16 17 17 17 16 15 14 13 12 13 13 13 13 11 11 9 3 1 1 1 3 1 4 8 5 1 4 12 14 17 17 16 16 17 15 11 6 4 5 5 5 5 4 7 7 5 10 9 3 3 4 3 0 2 2 1 2 4 2 3 5 6 7 9 7 3 3 3 6 18 21 19 21 24 24 20 17 18 18
17 18 18 19 19 19 19 19 18 17 17 17 17 16 15 14 13 13 13 13 13 12 10 9 5 0 1 2 1 2 1 7 8 5 4 8 13 14 17 18 17 18 18 16 13 9 5 5 7 6 4 4 6 7 7 9 8 6 4 6 5 3 2 3 3 4 7 2 4 5 6 6 8 8 4 3 3 15 21 21 21 22 22 20 18 17 17 17
19 19 20 20 21 20 20 20 19 18 18 17 17 16 15 14 13 13 13 13 12 10 9 7 2 3 2 1 1 1 4 7 5 5 7 10 14 18 20 19 21 20 16 17 16 11 6 5 7 7 5 5 5 6 10 8 6 7 5 7 7 6 3 3 3 3 8 3 6 6 8 6 7 6 3 3 7 20 21 22 22 20 20 18 17 17 17 16
20 20 21 21 22 22 22 21 20 19 18 18 16 15 14 13 13 13 13 13 11 9 7 3 2 4 3 1 2 1 4 4 4 6 8 10 15 21 22 21 23 22 15 14 15 12 9 7 5 4 4 4 3 5 12 8 4 7 8 7 8 8 5 5 5 2 7 3 5 8 9 6 4 3 3 2 8 20 20 21 21 19 19 18 18 16 18 19
20 20 21 22 23 23 23 22 21 20 19 18 16 15 13 13 13 13 13 12 10 8 5 2 4 6 3 1 3 3 4 4 5 8 9 11 18 22 24 23 23 24 17 11 14 17 14 12 7 4 4 2 4 3 9 6 6 9 10 6 6 7 4 4 5 1 4 2 3 6 8 4 2 2 5 2 6 20 20 18 19 16 15 16 18 15 14 17
20 21 21 22 23 24 23 22 21 20 19 18 16 14 12 12 12 13 13 10 7 4 1 3 8 9 3 0 4 8 4 4 3 7 8 9 15 20 22 22 22 26 21 10 13 21 19 17 11 5 5 3 4 2 3 6 8 9 10 8 7 6 3 3 5 1 1 1 4 5 7 5 4 3 4 5 2 18 20 16 17 14 13 14 14 13 10 14
21 21 22 23 23 24 24 22 21 19 19 18 16 13 11 11 12 12 9 5 4 1 3 6 10 8 3 1 9 11 6 3 1 6 8 6 9 16 18 17 19 24 22 14 14 19 19 17 12 7 6 3 3 2 1 4 8 9 7 7 6 4 0 0 3 3 2 2 4 2 5 2 2 4 2 5 1 14 19 15 15 12 12 12 11 11 8 12
21 22 23 23 23 23 23 21 20 19 19 17 14 11 10 10 9 8 6 3 1 3 6 9 11 6 2 5 11 9 7 7 8 11 11 8 8 13 16 14 16 22 22 18 16 15 16 17 12 8 4 3 2 1 2 4 7 9 7 4 3 2 2 1 1 3 3 1 4 2 4 3 5 4 2 4 3 10 19 14 14 12 11 11 11 10 8 11
21 22 23 23 23 23 22 20 19 19 18 16 12 9 8 8 6 6 4 2 2 5 8 10 10 4 1 7 11 8 7 7 10 18 15 11 10 11 14 16 17 21 20 18 18 17 18 17 10 5 2 2 1 3 2 4 4 5 5 1 0 1 2 1 3 3 3 1 2 3 5 3 5 5 3 4 2 7 18 15 15 14 12 12 10 10 9 10
22 23 23 22 22 21 21 20 19 19 17 14 10 6 5 6 4 4 3 4 3 6 8 8 7 3 1 5 8 7 5 4 12 22 18 13 13 11 13 17 16 18 20 19 19 18 17 13 4 3 1 0 0 3 3 4 2 1 2 3 3 3 4 2 3 2 2 2 1 3 4 3 3 4 2 3 1 6 16 16 16 15 13 13 10 9 10 9
23 23 23 22 21 21 21 20 19 18 15 11 7 3 2 4 3 3 4 5 4 6 6 2 2 2 3 6 7 5 5 6 10 21 22 14 14 14 14 11 9 14 17 16 16 13 10 6 1 2 1 1 2 4 4 2 3 1 1 4 5 6 6 3 2 3 3 4 2 3 4 3 3 3 1 2 2 4 15 16 15 15 13 12 9 9 10 9
23 24 24 23 21 21 21 20 20 18 14 10 6 1 1 2 2 3 5 6 4 3 2 3 0 1 3 6 5 3 4 7 9 15 21 17 15 17 15 10 6 8 8 7 9 7 3 2 1 1 2 1 2 4 3 3 5 6 5 4 5 6 6 5 4 6 7 5 3 5 5 2 3 4 2 1 2 2 12 15 15 15 13 11 10 9 10 11
23 24 24 23 22 21 21 20 20 18 15 11 6 4 4 2 1 2 5 5 3 1 2 2 3 1 1 4 5 5 4 9 9 9 17 20 17 17 15 11 7 6 3 1 4 4 1 2 2 2 2 3 4 5 5 1 1 10 11 7 8 6 4 5 5 8 11 7 4 6 6 3 4 5 3 0 1 3 7 12 13 14 13 10 9 9 10 11
22 23 23 23 22 21 20 20 19 19 17 12 7 4 3 1 1 0 2 3 4 6 4 5 8 3 4 5 4 4 5 9 7 6 15 18 14 13 9 6 4 4 3 3 2 3 3 2 1 5 6 6 7 6 6 2 1 9 10 8 9 7 4 3 5 8 7 5 4 4 6 6 4 4 2 0 0 4 4 11 13 13 12 9 10 10 10 10
22 22 23 23 22 21 21 20 20 19 18 15 9 3 1 1 0 2 2 4 8 10 9 8 10 8 10 10 10 8 4 5 4 4 12 13 10 9 4 2 4 3 3 5 3 1 3 3 5 8 8 9 8 5 4 4 4 7 6 7 6 4 3 5 7 5 3 2 2 3 6 6 3 4 4 3 2 3 3 9 14 14 12 9 10 11 9 8
22 21 22 22 21 21 21 21 21 20 17 14 8 1 3 3 2 7 5 3 7 9 12 11 9 11 15 16 21 17 4 4 4 4 7 8 7 7 4 3 4 4 4 3 2 0 2 4 8 10 8 8 9 6 5 5 6 5 3 6 4 3 4 7 8 7 2 2 2 3 5 4 5 6 3 4 3 3 3 2 9 14 12 9 11 11 8 9
22 21 21 21 21 20 20 22 20 16 15 13 6 4 7 7 8 12 6 1 7 6 7 8 7 9 10 13 19 16 5 5 5 5 7 8 6 6 5 4 5 4 4 4 4 3 3 6 11 11 7 7 10 8 7 5 4 5 5 5 4 6 5 3 4 7 3 2 3 4 4 3 4 4 1 3 4 3 3 4 1 7 9 10 12 10 10 12
21 21 20 20 21 18 20 23 14 10 15 15 12 11 13 13 13 14 5 1 5 6 4 7 7 6 8 7 9 10 6 5 5 5 9 9 5 5 6 5 5 4 5 6 6 5 6 10 10 9 8 9 10 9 7 5 4 6 8 6 6 9 6 5 8 7 3 4 5 6 4 1 0 1 3 2 4 3 3 4 4 3 3 7 9 8 10 13
22 22 20 20 20 16 20 17 5 9 18 15 13 15 17 13 14 11 3 2 3 5 3 4 4 4 6 4 8 8 4 4 4 6 11 11 7 4 4 4 4 5 7 7 7 5 9 12 7 7 9 8 8 9 7 6 5 5 8 9 12 12 7 12 15 10 3 1 5 6 2 1 1 2 4 1 3 3 3 3 2 3 2 4 7 7 8 11
23 22 20 21 20 18 15 6 5 16 17 9 10 18 17 8 8 4 3 3 3 3 1 0 1 2 4 2 4 3 3 2 5 10 12 12 11 5 3 3 2 6 8 6 4 3 8 10 6 9 10 8 8 9 8 7 5 3 8 10 13 13 12 18 18 9 3 3 7 9 2 2 2 3 5 2 1 3 2 2 2 2 2 1 5 5 5 8
24 22 21 21 21 20 10 4 12 16 8 5 11 17 17 10 7 5 4 3 3 2 1 1 1 0 2 3 4 5 2 4 3 8 11 13 10 4 2 4 2 4 4 3 3 3 7 8 7 9 10 8 7 7 8 7 6 4 8 12 15 14 16 20 16 7 2 4 6 9 2 3 3 3 5 6 5 5 4 3 3 1 1 3 2 3 4 6
24 23 22 19 19 19 11 9 15 10 6 12 16 16 17 15 10 5 3 2 2 1 1 1 0 1 3 1 1 2 3 3 3 5 9 15 10 4 3 5 2 4 3 2 4 5 6 8 8 9 9 7 6 8 8 7 5 5 9 17 17 15 16 16 11 4 2 4 6 9 3 4 2 2 5 7 7 7 7 6 5 3 2 5 4 3 3 4
24 23 22 20 18 15 11 12 12 9 12 19 17 16 17 15 8 4 3 2 1 1 1 0 1 2 2 3 1 2 1 2 3 4 4 9 7 3 4 5 3 4 5 5 6 6 6 8 8 9 7 7 7 9 9 7 5 4 13 15 11 9 9 9 6 4 4 2 5 10 5 4 2 2 4 6 7 8 8 6 5 4 4 6 5 4 3 2
24 22 22 20 17 12 11 15 14 10 16 19 18 18 15 9 5 3 1 1 1 2 1 0 1 1 1 2 2 2 1 1 1 2 2 3 3 1 2 3 2 3 3 3 5 6 7 8 5 6 7 8 9 9 8 8 7 8 14 11 5 5 4 4 4 5 4 2 5 11 8 4 3 3 5 5 5 8 8 6 6 6 7 9 7 4 4 3
24 22 21 20 17 12 9 11 13 12 15 18 20 16 9 4 4 3 1 1 0 2 1 1 3 2 4 4 3 2 2 1 2 4 1 1 2 2 1 1 1 2 3 3 4 5 6 6 5 4 6 7 8 8 7 7 7 7 9 9 7 3 4 4 4 5 3 4 5 11 9 4 3 4 7 6 4 9 11 9 10 11 10 10 7 4 4 3
22 20 20 19 18 15 9 11 14 14 15 18 16 8 3 4 3 1 0 1 1 2 2 2 4 3 3 4 3 2 2 3 4 5 3 2 3 2 3 2 2 2 3 3 3 4 4 5 6 4 5 5 5 5 3 1 3 6 7 8 7 3 1 2 1 2 3 6 5 13 9 2 1 3 6 10 7 8 10 9 12 13 12 11 8 6 5 4
21 19 18 18 18 18 16 16 16 13 15 17 12 3 5 5 1 2 2 2 1 4 3 3 4 3 4 2 2 2 3 2 3 3 3 3 3 2 4 4 4 3 1 3 3 3 3 5 5 3 4 3 6 4 2 1 1 4 6 7 6 4 3 3 3 3 4 5 4 12 8 1 2 2 1 7 7 7 8 6 8 9 10 8 4 1 1 0
20 18 17 18 19 20 18 15 12 11 13 12 7 4 5 3 2 3 2 3 3 3 3 1 4 3 4 3 2 3 3 2 2 3 3 3 2 1 3 3 2 2 1 3 3 1 2 4 5 4 4 2 4 4 5 4 1 2 5 5 5 6 4 4 5 4 4 3 4 5 3 1 2 1 3 1 3 5 6 4 4 4 4 4 4 4 3 5
19 17 17 19 20 17 12 10 8 7 6 5 5 4 4 1 3 2 2 3 3 3 4 2 4 4 4 3 2 2 2 2 3 3 3 3 2 1 1 2 2 2 2 1 2 1 3 4 5 4 4 4 5 3 4 4 1 2 2 5 4 5 4 4 5 4 4 4 3 2 0 1 2 2 4 4 4 6 6 6 6 3 2 6 6 4 4 8
18 16 15 16 18 13 8 7 7 5 0 5 5 3 1 3 3 2 3 3 4 4 4 5 3 2 1 2 2 2 2 2 3 2 2 4 4 5 2 2 4 3 2 2 1 2 1 3 6 3 4 5 6 4 3 4 2 2 1 3 3 4 4 4 3 4 6 4 1 2 2 0 1 1 5 5 3 7 7 8 8 5 4 4 4 5 7 9
18 15 11 14 16 12 10 11 9 5 3 6 3 1 3 3 3 4 3 3 5 4 4 4 3 1 2 2 2 3 4 1 2 2 1 3 3 7 5 2 4 6 2 1 1 1 2 2 7 3 5 3 3 5 4 4 5 3 1 3 4 1 2 3 3 4 4 3 2 3 3 1 2 1 3 3 2 6 7 9 10 8 8 7 6 6 7 8
16 11 9 14 13 9 10 13 10 4 4 4 1 3 2 2 3 2 2 4 5 5 5 2 1 1 4 2 2 7 9 5 3 1 2 3 1 3 5 3 5 8 6 2 2 0 2 1 6 4 2 1 5 6 2 3 3 4 3 2 1 2 2 1 2 4 3 3 2 3 3 1 1 1 2 2 2 5 7 9 10 11 11 9 9 8 7 7
9 5 5 8 7 7 11 11 6 4 5 2 2 3 2 2 4 5 5 4 3 4 4 3 2 2 4 3 1 5 9 7 7 4 3 3 1 1 5 3 4 9 9 4 3 2 1 4 3 6 2 3 5 3 2 3 4 2 1 2 1 3 3 2 2 3 5 4 3 2 1 2 2 2 3 2 4 4 7 9 9 10 11 9 9 9 7 7
3 2 4 5 4 10 14 10 4 4 2 2 2 3 3 3 4 6 6 5 3 3 2 4 4 3 3 4 3 4 7 7 6 4 3 3 1 1 6 5 4 9 8 4 4 2 2 4 1 5 3 4 2 0 4 3 1 2 2 2 1 1 0 1 1 1 5 5 4 4 1 3 2 1 2 6 6 4 5 10 9 8 11 10 9 9 7 7
2 3 4 4 3 12 14 8 2 1 1 2 2 2 3 2 4 6 7 7 4 2 2 3 4 4 3 4 4 3 5 5 4 3 2 4 3 2 5 5 3 6 6 4 5 4 2 2 0 3 2 2 3 4 5 5 4 4 3 2 3 1 1 1 2 3 3 4 4 6 4 1 1 1 2 5 6 3 4 8 9 8 11 11 10 9 8 7
3 1 6 7 5 10 11 4 2 2 2 2 3 2 3 3 4 7 7 6 5 3 3 4 5 5 3 3 4 4 4 2 2 2 2 2 4 2 4 6 4 2 3 2 3 2 1 2 2 2 2 3 5 3 2 3 4 4 3 2 2 2 3 4 3 2 2 5 4 4 3 2 2 3 2 3 5 7 6 6 8 9 9 10 10 10 9 8
1 4 9 12 9 7 7 2 4 1 2 3 2 2 2 3 3 6 6 5 5 3 3 4 4 4 4 3 4 3 3 2 2 1 2 2 3 2 3 5 5 3 4 2 3 3 2 2 2 3 4 3 4 5 6 5 5 4 1 1 1 0 3 4 4 4 4 3 4 4 3 2 1 3 4 4 2 5 9 8 8 9 8 9 10 9 9 9
1 4 6 9 7 5 5 1 3 2 3 2 1 1 2 3 2 3 5 4 3 3 3 3 2 1 1 3 3 2 2 2 1 2 2 2 1 2 2 5 6 4 3 0 2 3 3 1 3 3 3 4 6 7 7 7 4 2 2 4 4 1 5 6 3 3 4 1 3 5 3 2 1 2 5 4 1 5 9 9 9 10 9 9 9 7 8 9
2 2 4 6 4 3 4 3 4 3 1 1 2 1 2 2 2 3 3 3 3 3 2 2 1 2 3 4 4 3 2 3 1 2 2 2 2 2 4 6 5 3 1 3 3 1 2 2 3 4 4 3 2 2 2 4 3 2 2 3 4 3 5 5 3 4 4 3 3 4 5 3 3 6 6 2 2 7 9 8 9 9 9 10 9 7 7 8
2 1 3 6 4 3 1 2 3 3 2 3 2 1 2 1 2 3 3 2 3 4 2 2 2 3 4 5 4 4 5 4 2 1 2 2 1 2 4 5 4 4 4 4 4 2 2 3 2 5 5 5 5 4 4 2 1 2 2 3 4 4 5 6 5 3 4 6 4 1 10 11 6 8 9 5 4 7 8 9 9 8 9 10 9 9 8 8
2 0 2 3 4 4 4 3 4 3 2 4 2 2 0 2 1 3 3 2 3 4 3 3 3 3 2 3 4 3 5 6 5 3 3 2 2 2 5 5 5 8 7 6 6 4 3 4 4 2 1 3 5 4 1 3 4 4 4 5 6 5 6 6 5 4 6 7 3 2 13 17 11 10 12 10 8 7 8 9 9 8 9 10 10 11 10 10
1 1 1 1 1 2 3 3 3 5 5 4 2 3 4 4 5 3 3 3 3 5 3 3 5 3 3 4 4 1 4 5 5 4 3 4 3 4 6 5 6 9 7 5 5 4 4 2 4 4 5 4 1 1 5 7 5 4 7 7 7 6 6 5 5 6 6 6 7 9 13 16 14 12 13 12 10 9 9 10 10 10 10 10 11 12 12 11
2 1 2 2 1 3 4 4 4 5 6 4 3 4 5 6 6 3 3 4 5 5 4 4 7 6 5 5 4 3 2 2 1 4 3 4 3 2 3 4 5 7 6 5 5 3 5 2 5 4 5 7 6 5 6 8 6 7 7 6 6 6 7 7 5 4 6 10 14 14 12 11 11 11 12 11 11 11 10 9 10 11 10 11 12 13 13 12
2 1 3 4 3 4 4 5 5 4 4 4 3 3 3 6 6 4 3 4 3 5 4 6 8 9 8 8 7 5 2 2 2 2 3 4 3 1 1 1 3 5 6 4 4 4 4 2 6 4 4 6 7 8 8 6 6 6 7 7 8 8 7 6 6 8 11 12 14 16 12 7 6 8 9 10 11 11 10 9 10 10 11 12 13 12 12 11
4 4 3 1 3 5 4 5 4 3 3 2 2 2 2 4 4 3 3 3 4 4 5 4 7 8 7 9 9 6 5 3 3 3 3 3 2 1 1 2 2 2 5 3 3 4 3 2 4 5 4 4 6 9 9 6 6 7 7 8 7 6 4 5 6 9 14 15 14 14 11 6 5 8 10 11 13 13 11 11 10 9 10 13 13 13 12 11
9 5 3 1 1 3 5 5 4 4 1 2 2 4 3 4 4 5 3 4 5 7 6 5 7 5 5 8 7 4 5 5 3 4 3 1 1 2 1 1 3 5 2 2 2 2 2 2 2 3 3 3 6 7 7 6 7 5 4 4 3 3 3 6 7 9 14 17 14 10 8 7 9 12 12 13 14 13 12 11 10 10 11 12 13 13 12 11
Wind_Direction
341 339 338 337 336 334 333 331 329 328 327 325 323 322 320 320 320 322 319 317 321 320 321 320 317 320 322 332 337 334 326 316 311 286 237 256 245 217 185 169 175 161 159 174 178 174 177 192 207 201 193 208 195 148 164 154 165 165 124 225 221 206 193 182 173 162 138 139 156 146 126 113 136 230 228 27 89 127 130 115 118 110 115 128 135 144 145 142
339 338 337 336 335 333 333 330 328 326 325 323 321 320 318 318 319 320 317 318 323 323 322 318 317 321 325 336 342 337 327 317 304 274 248 253 235 200 189 166 173 173 167 178 186 178 171 190 196 190 189 209 192 156 170 171 181 188 157 220 206 191 171 3 280 166 139 149 153 140 134 128 153 202 215 115 121 128 122 122 125 118 123 131 140 145 142 142
339 339 337 335 334 333 332 329 327 325 323 321 319 318 316 316 318 318 317 321 324 322 320 317 318 322 331 339 347 342 324 321 289 265 265 240 211 195 191 180 176 184 183 183 186 185 182 188 187 181 185 213 186 150 186 191 193 192 180 237 264 103 64 7 312 311 135 149 143 139 141 135 166 204 198 127 126 133 136 140 135 132 140 143 145 143 141 144
339 338 335 334 334 332 331 329 327 324 322 320 318 317 315 316 316 316 317 322 322 319 317 316 319 324 341 344 351 344 319 328 276 264 340 203 198 186 185 181 178 191 195 188 188 193 201 206 199 190 188 210 161 143 184 177 177 176 159 216 330 44 58 8 337 357 349 155 145 145 140 139 180 199 152 130 127 141 149 150 145 143 146 144 142 142 144 145
340 338 336 334 333 331 329 328 325 323 322 319 318 316 314 315 315 316 319 322 318 315 318 316 317 325 352 3 4 342 333 43 268 262 43 178 189 182 181 175 176 190 195 194 195 203 227 259 247 221 210 196 148 145 189 172 166 149 187 217 91 56 89 28 337 55 328 206 141 141 138 140 144 121 142 133 133 158 152 149 147 144 144 142 142 144 145 144
341 339 337 334 332 330 328 327 325 322 320 319 319 316 314 314 314 318 319 319 317 315 319 316 317 330 12 28 27 348 24 166 256 218 62 161 183 183 178 173 178 186 192 195 198 205 229 251 256 233 220 173 167 187 176 168 174 159 191 180 128 350 100 148 218 123 102 78 141 148 139 137 130 121 155 142 154 180 143 142 146 141 141 142 141 142 144 147
340 339 337 335 333 330 329 328 326 321 319 319 318 316 313 313 314 317 317 317 317 317 318 317 317 334 73 98 65 22 69 266 261 239 303 170 177 183 177 175 179 185 192 192 192 198 206 211 227 230 219 190 181 193 171 169 187 192 167 159 150 137 83 105 96 64 81 100 204 179 141 134 130 119 157 213 240 159 138 139 142 139 142 144 144 145 147 151
340 339 338 337 335 332 330 328 326 324 321 319 318 317 314 314 314 314 316 316 317 319 316 316 318 280 104 119 124 22 275 253 248 211 197 171 170 178 178 179 184 188 193 194 191 191 193 210 227 230 222 212 193 189 170 164 189 216 180 153 147 127 99 94 91 65 82 75 256 170 118 110 120 120 151 251 162 138 137 138 140 142 146 148 149 150 151 155
340 339 339 337 335 333 331 328 327 326 324 322 320 318 316 316 316 314 316 317 316 317 312 312 323 140 133 117 102 8 258 243 225 182 180 175 171 175 178 182 189 190 193 201 199 191 191 205 217 221 222 226 225 192 168 163 195 207 171 151 153 143 157 146 138 124 109 141 242 146 104 102 124 122 132 285 141 136 137 139 143 147 151 153 153 156 157 160
340 339 338 336 334 332 331 329 328 328 326 324 321 318 318 318 317 317 319 321 316 310 309 298 162 140 151 188 115 126 262 236 198 191 192 187 176 177 183 187 189 188 193 204 203 200 204 214 227 249 255 243 262 196 176 178 173 155 144 160 165 151 174 166 155 164 107 141 227 136 114 129 147 123 115 292 143 137 139 141 147 151 153 155 156 160 162 163
340 338 337 335 333 331 331 329 328 329 326 323 321 318 321 321 320 324 324 324 317 307 305 248 168 152 170 192 139 204 238 207 193 188 188 189 183 183 190 194 190 188 192 197 206 211 217 236 259 294 278 278 326 229 176 150 110 137 148 147 133 123 132 122 116 91 83 90 256 107 96 98 65 65 101 31 137 140 141 143 148 152 150 151 155 160 163 165
340 338 337 335 332 331 331 331 329 328 326 324 321 322 326 325 324 325 324 326 322 317 309 175 153 149 149 46 217 220 180 127 173 179 175 185 193 198 196 197 195 190 189 188 211 216 219 233 241 255 256 293 333 279 151 110 112 140 148 122 94 85 75 84 107 155 106 177 223 121 86 45 14 356 82 38 150 146 141 145 149 149 147 147 154 159 165 166
338 338 338 335 333 332 331 332 330 327 328 326 324 329 329 326 327 324 326 340 338 31 125 153 149 145 127 217 239 228 182 130 189 188 178 169 193 202 194 196 200 194 191 196 216 221 227 237 233 236 251 276 289 245 148 125 122 117 116 107 97 80 360 159 118 155 155 174 241 163 93 52 301 294 86 63 310 153 143 147 150 149 150 150 159 163 167 168
339 339 339 337 336 335 333 333 331 329 329 328 330 335 331 329 331 331 337 1 35 133 143 144 140 130 122 254 264 262 260 264 246 211 190 164 167 185 188 196 201 196 197 210 232 242 255 266 255 239 244 234 233 300 52 113 116 107 92 70 100 135 210 239 6 168 160 150 296 318 117 185 218 239 130 92 311 165 149 149 152 152 155 156 165 168 168 168
342 342 341 340 339 338 337 335 332 331 331 334 338 338 333 333 337 349 9 67 100 139 148 143 143 129 5 276 278 290 293 274 227 209 190 164 167 180 194 201 200 200 204 219 242 257 270 280 267 234 248 250 282 29 53 94 96 117 107 41 223 173 186 243 272 204 189 177 335 346 131 178 220 209 177 139 297 176 153 151 157 158 162 165 170 170 172 171
344 343 343 343 343 341 339 337 335 333 335 340 344 341 343 350 6 19 46 103 114 139 139 137 162 175 360 284 287 297 271 208 202 202 186 163 176 187 192 197 197 202 213 227 245 260 269 278 263 210 189 277 99 71 62 85 95 204 136 172 186 176 175 213 245 197 243 194 64 4 128 140 221 206 194 135 340 184 159 155 161 161 166 170 172 173 172 169
344 343 344 345 346 344 341 340 338 337 342 346 345 346 8 13 44 65 78 96 113 152 147 122 167 190 270 284 298 298 231 192 187 190 184 175 184 185 174 180 193 201 218 236 250 263 266 266 230 212 72 99 154 95 65 115 157 209 144 160 175 173 170 168 175 177 231 211 127 64 128 151 192 174 135 103 17 180 164 161 162 163 168 171 173 171 168 165
344 343 344 345 347 346 342 342 342 342 346 351 350 345 339 358 90 104 110 114 106 141 228 305 19 127 267 275 283 284 228 201 191 186 187 184 188 190 175 170 189 196 215 250 256 255 255 301 65 91 322 237 165 117 142 183 151 163 164 149 159 164 171 171 155 162 187 195 141 123 131 167 186 144 90 45 3 128 167 166 159 163 170 169 171 168 162 162
344 344 343 344 346 346 344 343 343 343 345 349 350 316 288 268 187 142 135 135 116 138 266 224 181 139 288 253 250 254 236 202 205 201 191 187 191 197 188 182 182 171 177 237 269 251 148 17 54 150 262 234 211 185 175 287 91 160 161 149 153 159 181 179 152 157 171 172 154 146 142 157 179 151 122 213 335 78 152 165 156 163 170 163 167 166 157 158
344 344 343 342 342 345 344 342 343 343 343 347 348 331 300 320 22 259 166 176 210 224 237 195 192 253 303 291 287 255 219 196 205 201 190 190 184 184 187 184 160 142 162 167 244 271 131 109 203 205 224 225 228 209 175 279 327 143 147 152 156 158 165 152 142 154 162 162 170 151 132 149 174 147 110 268 180 58 110 156 157 163 168 160 164 165 156 157
345 344 342 340 339 343 343 341 342 340 340 340 340 349 245 208 46 310 259 230 234 225 239 229 202 235 263 269 290 282 229 187 214 209 195 189 162 161 187 161 143 180 210 177 193 296 123 164 225 221 217 226 239 230 186 199 164 136 142 148 143 156 140 83 89 101 42 29 155 136 125 144 135 79 19 347 81 49 73 153 158 164 166 158 163 166 155 152
346 345 342 339 336 339 341 341 340 339 340 336 329 320 250 255 302 314 304 278 269 224 224 239 227 248 256 257 266 264 226 158 225 248 209 178 147 166 192 146 147 210 232 177 156 162 168 220 237 228 216 229 247 247 233 214 168 149 136 134 140 164 111 70 84 101 61 33 112 160 141 120 71 64 359 324 49 44 12 115 158 165 164 158 166 167 150 150
346 343 342 339 334 336 339 339 340 344 349 337 305 243 266 296 327 323 324 325 295 256 215 228 231 247 260 266 258 242 190 160 196 233 205 161 148 167 159 152 163 200 220 180 163 157 193 236 235 227 209 218 243 244 236 229 173 156 145 140 161 170 147 92 119 132 122 59 101 143 120 69 43 61 290 313 23 30 11 11 76 157 161 160 167 168 152 154
345 343 342 337 333 335 335 337 341 352 352 330 295 287 298 303 308 309 322 93 286 284 240 220 215 225 252 258 215 190 171 172 175 202 191 159 144 157 158 169 166 194 220 193 181 173 220 237 225 221 213 208 233 242 226 209 187 180 173 161 161 176 180 138 133 129 78 37 99 119 85 26 34 121 241 336 14 353 12 9 9 44 130 145 157 168 157 159
344 342 341 338 337 334 331 334 342 345 340 314 292 325 336 309 287 290 323 59 286 285 278 228 210 217 251 228 161 164 161 175 189 187 176 163 157 151 169 179 155 200 223 204 191 191 236 243 214 212 226 211 224 242 226 196 184 189 195 186 167 168 154 123 127 123 101 102 165 163 118 140 183 200 223 21 22 325 3 353 357 25 11 130 149 166 155 163
342 342 342 341 339 338 336 331 321 330 327 297 302 339 344 308 282 313 68 51 315 276 323 331 177 200 255 225 155 119 93 211 217 176 169 176 177 155 169 198 166 203 210 202 198 196 237 239 203 207 224 215 220 240 235 202 170 186 213 191 160 153 139 135 137 133 146 169 188 205 186 118 175 208 215 169 131 253 302 302 301 35 319 193 159 161 144 165
341 341 343 344 342 343 344 294 315 324 310 301 326 334 337 331 336 12 70 45 343 279 224 333 6 360 261 221 146 102 122 247 212 163 174 184 180 132 162 220 214 209 209 174 205 231 231 225 202 207 218 215 214 234 236 193 168 227 208 166 151 157 154 151 147 134 132 115 166 209 195 108 167 179 201 185 167 217 239 245 248 186 267 280 218 173 150 169
340 340 341 344 343 341 332 308 318 317 297 322 326 325 332 333 342 30 89 65 16 345 261 243 7 244 265 303 114 154 213 207 143 184 192 180 173 123 175 227 214 231 259 183 220 258 241 221 200 195 210 218 211 226 224 181 182 241 178 155 159 168 159 153 146 112 69 97 159 209 180 102 157 158 186 184 169 202 217 216 231 205 225 268 257 212 188 187
339 340 337 340 340 334 328 316 308 301 319 332 331 325 326 329 351 65 97 81 64 305 253 230 356 241 263 3 348 248 277 66 142 213 189 171 180 132 173 219 219 265 263 190 215 261 253 234 202 180 199 217 218 226 217 186 201 180 146 151 159 153 138 132 124 82 49 59 186 208 189 116 159 188 184 185 181 198 204 201 212 204 222 252 255 221 211 214
338 338 334 336 336 326 321 309 296 303 326 335 334 327 325 335 30 84 30 52 198 260 225 268 301 216 135 44 313 254 239 340 128 148 119 165 187 118 165 201 198 271 277 213 233 246 255 264 230 185 192 209 219 227 210 190 192 148 139 146 112 77 78 89 88 81 78 309 224 202 196 138 141 214 206 201 188 177 177 185 193 195 215 236 245 219 201 208
335 337 332 331 326 314 305 300 304 317 321 325 330 328 333 4 66 91 55 70 250 273 259 252 252 201 134 155 231 254 201 221 103 102 161 167 89 64 332 343 11 351 345 309 279 268 276 282 260 218 194 196 206 215 205 187 176 130 136 144 113 63 21 48 32 56 106 262 227 184 185 140 132 218 211 210 199 165 168 180 185 190 207 222 228 208 199 215
334 335 328 324 319 307 289 291 309 318 316 323 332 337 44 40 30 115 230 3 351 258 221 217 235 223 154 171 211 192 159 180 149 142 175 144 94 165 202 192 164 38 343 287 290 307 283 250 247 236 203 176 158 191 232 212 118 97 126 140 127 138 85 75 30 84 184 249 203 162 158 128 243 249 197 193 200 178 172 179 182 188 199 208 212 200 197 205
332 331 323 319 314 307 301 304 310 308 308 323 339 29 87 62 352 255 281 306 250 229 224 195 199 185 142 168 249 179 180 220 179 155 161 134 116 208 234 215 164 116 310 266 305 323 294 270 266 223 209 175 115 138 221 237 96 102 141 145 130 153 150 149 180 168 206 239 170 148 142 129 265 313 158 181 190 180 174 178 179 187 196 197 197 154 124 360
331 329 322 315 308 304 306 310 308 298 305 328 4 53 57 54 276 288 292 249 231 250 278 158 157 154 152 196 244 169 171 249 211 150 134 109 95 217 270 279 206 163 204 290 289 203 175 261 256 205 218 211 110 140 171 164 137 149 163 141 139 169 158 153 180 186 194 176 116 129 143 171 198 308 354 61 134 147 155 146 147 178 188 141 95 61 61 52
333 328 320 312 304 300 304 306 284 275 306 4 47 57 52 4 270 299 285 269 308 318 320 46 121 159 184 221 251 178 167 218 197 143 117 109 83 269 241 344 306 212 150 247 270 206 161 226 250 230 205 158 124 159 151 111 56 255 165 116 143 186 162 154 188 171 136 123 85 81 47 309 223 270 340 15 84 119 129 127 130 154 155 127 127 124 96 82
338 331 320 308 299 289 288 289 257 240 27 61 48 40 169 234 230 218 266 296 341 332 336 12 48 138 188 282 266 234 218 178 129 87 92 117 61 1 358 47 15 35 97 178 252 358 76 259 289 279 181 154 144 160 121 111 167 290 56 145 218 224 162 150 172 119 100 109 104 76 77 360 212 281 341 358 88 118 126 121 114 115 111 111 120 110 90 90
342 339 323 299 291 277 270 275 251 222 85 77 63 296 235 235 214 204 256 338 352 353 34 29 354 61 51 341 327 360 352 349 85 60 27 112 52 347 345 17 21 21 8 191 156 72 111 271 296 264 180 196 126 110 68 85 126 95 51 230 257 275 148 123 123 116 89 104 119 48 51 150 163 180 322 334 104 124 122 111 105 103 92 76 72 88 98 105
336 340 315 285 275 255 260 266 241 187 80 66 349 272 231 231 254 259 319 356 358 17 55 54 289 87 73 60 348 19 27 4 339 11 47 47 28 320 349 357 353 347 333 26 92 268 106 75 301 299 152 346 27 78 71 353 59 125 168 215 95 135 185 38 131 149 104 108 122 31 15 164 163 236 215 201 125 116 113 102 98 95 88 84 87 88 90 95
331 356 313 279 269 243 233 229 206 111 63 30 286 281 264 255 296 331 353 359 14 42 40 3 354 38 57 86 100 26 41 24 352 19 60 21 282 294 7 4 333 332 329 23 75 279 45 96 288 308 42 56 15 59 168 305 348 75 85 14 61 157 167 170 182 157 127 134 141 77 349 229 229 258 193 124 41 60 102 95 86 88 88 85 89 88 80 77
350 31 279 273 270 230 206 182 133 66 41 260 225 252 286 308 317 332 359 21 39 73 35 357 21 34 23 61 82 40 45 35 6 25 49 3 326 351 7 14 342 327 327 21 61 360 9 85 216 299 9 72 21 312 170 178 49 52 25 349 299 307 27 184 265 87 121 135 142 134 187 262 250 225 131 90 53 25 91 96 89 86 87 81 80 83 76 70
35 31 264 283 234 195 172 141 101 96 184 263 244 249 293 339 332 332 355 18 30 90 79 29 38 46 18 42 60 37 44 42 9 22 36 14 40 20 351 8 346 322 337 20 31 16 10 68 78 298 9 112 229 229 168 156 150 139 148 210 216 192 106 95 321 326 95 117 146 154 161 237 346 58 100 102 102 94 73 88 95 87 85 86 83 81 76 69
53 21 260 301 277 184 141 102 258 176 156 237 246 278 340 9 353 347 348 6 22 31 40 37 38 39 31 50 57 50 62 55 356 27 81 53 60 36 325 351 350 332 47 33 314 321 64 77 38 291 237 211 246 252 101 105 121 128 149 186 182 158 129 138 187 246 72 88 105 105 106 105 31 29 71 82 103 118 101 86 92 86 83 88 85 82 79 70
80 277 277 301 283 193 119 35 273 273 239 229 231 288 356 24 3 360 359 7 21 10 15 38 41 32 31 49 59 61 70 66 308 14 114 90 44 6 325 4 9 20 56 26 303 332 23 64 37 309 296 322 327 350 11 20 62 74 350 352 25 312 122 130 159 154 109 104 115 86 78 118 31 16 82 73 40 124 119 111 106 97 89 89 86 83 82 75
248 265 285 314 293 183 121 249 242 242 252 230 48 338 23 33 17 26 9 352 5 17 19 29 46 76 70 56 63 93 114 111 306 335 90 108 5 332 359 30 32 31 42 314 288 347 360 42 64 27 11 15 4 5 356 346 24 55 315 336 342 355 106 92 68 83 83 99 133 117 110 130 119 77 82 74 73 123 118 116 113 107 102 99 92 84 83 80
320 280 276 308 313 142 147 195 185 189 227 104 86 77 65 4 332 50 26 336 356 33 24 333 340 99 83 56 44 22 58 113 136 337 46 53 349 327 358 21 39 34 332 250 249 303 18 31 78 101 113 117 90 22 316 296 322 329 318 13 15 25 87 99 89 72 91 117 99 113 127 109 100 111 98 65 118 124 122 116 109 107 109 107 102 93 88 85
19 355 307 314 344 56 209 226 124 130 126 88 61 53 111 191 312 29 33 351 1 25 26 321 350 45 51 52 58 28 13 32 45 45 77 49 315 293 347 360 9 351 343 351 354 43 80 24 56 121 144 160 171 208 242 239 72 2 348 38 37 32 67 99 106 99 137 124 57 90 140 133 143 144 138 162 169 136 131 124 116 116 113 109 107 101 94 89
70 344 358 338 329 354 342 351 49 72 98 101 82 320 70 130 56 18 14 10 19 27 20 351 13 59 78 65 81 50 360 13 24 29 64 56 287 307 355 3 6 359 358 9 16 53 86 5 3 61 149 191 189 214 301 39 62 70 62 43 26 36 66 80 98 140 147 115 73 182 144 137 157 166 154 168 173 146 138 135 130 127 120 116 113 106 98 91
35 266 354 22 282 304 331 342 42 59 52 72 71 349 17 69 72 38 356 349 9 33 37 353 4 49 123 107 105 85 4 20 13 354 29 39 2 352 1 357 5 7 6 9 16 70 104 8 338 357 355 355 360 9 43 49 39 46 64 60 41 49 81 90 114 148 146 124 144 167 153 144 157 165 162 167 166 152 148 144 136 131 126 122 116 106 97 90
11 326 306 347 326 248 277 323 24 67 64 67 51 16 41 67 61 40 13 6 354 6 54 50 14 25 71 85 98 96 49 61 341 329 11 42 27 33 22 348 343 358 14 21 6 62 110 352 325 5 8 351 353 7 37 51 38 20 31 44 43 59 102 120 125 126 112 119 135 143 143 144 151 160 163 161 156 149 145 141 136 131 126 118 110 104 99 93
10 311 314 343 341 301 305 348 22 68 63 60 54 13 52 72 48 17 27 50 21 350 19 67 51 41 49 57 68 67 49 134 132 1 13 41 28 42 78 289 293 343 14 26 349 9 75 329 316 29 39 329 341 6 17 39 53 33 13 10 26 46 71 90 99 99 98 111 128 130 130 140 153 154 147 137 139 141 138 138 135 126 120 112 102 98 96 91
335 283 305 348 321 327 347 351 15 79 46 25 71 36 45 74 61 38 24 47 81 50 24 69 73 53 41 44 52 42 8 27 66 4 6 65 79 145 155 190 182 35 14 16 357 360 36 346 330 45 59 310 331 0 356 14 57 43 8 355 11 37 57 74 104 122 123 124 127 129 135 152 155 138 125 122 130 133 133 131 124 117 119 113 106 102 97 91
355 329 342 67 272 338 6 343 350 87 111 245 130 78 70 81 69 75 59 8 42 61 48 64 79 68 44 36 25 350 328 333 332 329 339 57 82 61 99 138 106 101 82 24 28 352 12 29 360 48 71 295 317 349 357 25 49 24 323 301 331 360 48 80 90 116 133 136 139 145 153 154 142 131 124 125 128 129 130 128 120 120 121 114 112 111 105 100
Height
802 801 799 798 797 796 795 794 793 792 791 790 788 788 787 786 786 785 785 784 783 782 781 780 779 778 778 777 777 776 775 774 773 773 771 761 757 760 761 762 764 765 766 768 770 772 773 775 775 776 779 781 781 784 786 785 786 791 799 807 809 808 804 798 797 797 796 799 801 800 800 805 808 804 795 793 797 800 803 805 804 803 804 807 809 812 815 818
801 800 798 797 796 795 794 793 792 791 790 789 787 787 786 785 784 784 783 782 782 781 780 779 778 777 777 777 776 775 774 772 772 770 762 756 756 758 759 761 763 765 765 766 768 769 772 773 773 775 779 782 781 783 787 785 786 793 799 806 805 802 797 791 790 790 790 795 799 798 799 801 803 801 795 799 806 804 809 811 808 810 811 811 811 813 816 818
799 799 798 797 795 794 793 792 791 790 788 788 786 785 784 784 783 782 782 781 781 780 779 778 777 776 776 776 775 775 773 772 770 763 754 752 755 756 758 760 761 763 764 764 766 767 769 769 770 774 780 783 780 783 789 786 787 791 796 806 801 794 794 790 789 788 786 789 796 799 797 799 799 796 795 801 806 807 811 812 810 814 815 813 813 813 816 819
799 798 797 795 794 793 792 791 790 788 787 786 785 784 784 782 782 781 780 780 779 779 778 777 776 775 776 775 775 774 772 772 765 755 751 751 753 754 757 759 760 762 763 764 766 767 767 768 770 773 779 785 781 782 788 786 787 789 793 801 796 791 797 795 791 789 788 788 791 797 797 799 796 793 795 799 807 811 809 806 806 810 811 812 812 813 817 819
798 796 795 794 793 792 791 790 789 787 786 785 784 783 782 781 780 780 779 779 778 777 776 776 775 775 775 774 774 773 773 775 763 751 752 751 751 754 755 758 760 761 763 765 766 767 768 769 771 774 779 784 785 785 786 781 782 790 791 792 791 792 797 795 790 789 791 792 791 793 797 797 794 794 797 798 806 809 802 801 802 803 806 809 811 814 817 819
797 795 794 793 792 791 789 788 787 786 785 783 783 782 781 780 779 778 778 777 776 776 775 775 774 774 774 773 774 773 773 773 758 750 753 751 752 753 755 758 759 761 763 764 765 767 769 770 774 779 779 781 786 786 784 779 778 789 791 788 790 791 793 791 789 789 790 798 797 793 792 792 795 799 798 797 801 798 793 796 800 801 804 807 810 814 817 820
796 795 793 792 791 790 788 787 786 785 784 782 781 780 779 778 778 778 776 776 775 774 774 774 773 773 773 773 773 773 774 766 752 751 752 751 753 753 755 757 758 761 762 763 764 767 769 772 776 778 778 780 783 781 780 778 777 786 791 789 790 791 791 789 790 790 790 800 800 790 789 792 798 802 800 798 795 792 791 794 799 802 805 808 811 814 817 820
796 794 793 791 790 788 787 786 784 783 782 780 779 778 778 777 776 776 775 775 774 773 773 772 773 773 773 773 772 774 773 761 749 751 751 751 753 753 756 757 758 760 760 762 762 764 768 772 775 774 779 779 776 778 776 780 783 785 788 787 788 790 790 788 789 791 791 800 801 793 795 796 795 798 801 800 793 790 791 795 799 804 807 810 813 815 817 820
795 794 792 790 789 787 785 784 783 782 780 779 778 777 776 775 775 774 774 773 772 772 772 772 772 772 773 773 772 773 764 752 748 750 750 751 752 753 755 754 757 759 759 761 760 763 767 769 770 768 774 772 769 774 773 783 788 781 781 784 787 790 790 789 791 792 792 799 802 800 801 799 793 794 800 798 792 790 791 796 801 804 810 812 814 815 817 819
794 792 791 789 787 786 784 782 781 780 779 778 776 775 775 774 774 773 773 772 771 771 770 771 771 772 773 772 773 771 755 746 749 749 749 750 751 752 753 753 755 757 758 759 759 762 762 763 763 760 766 768 767 769 771 778 778 772 777 781 784 789 788 788 793 795 794 798 799 800 803 800 792 796 804 798 790 790 794 799 802 805 810 812 814 815 816 818
793 792 790 788 786 785 783 781 780 778 777 776 775 774 773 773 772 772 771 771 770 770 770 770 770 772 773 772 773 766 750 747 749 747 749 749 749 750 750 751 753 755 756 758 758 758 757 758 757 761 767 767 765 768 768 768 768 770 777 784 786 788 789 790 794 799 799 802 800 795 800 800 796 801 805 798 791 791 797 802 804 806 809 810 813 814 814 816
793 791 789 787 785 783 781 780 778 777 776 774 773 772 772 772 771 771 770 770 769 769 769 769 771 771 772 773 770 758 748 748 749 748 749 748 749 749 749 751 751 753 754 756 756 755 756 756 757 767 768 764 768 772 768 763 767 773 776 790 796 792 795 796 796 801 802 805 798 791 804 811 809 809 804 798 795 793 798 804 805 807 809 810 812 813 814 815
792 790 788 786 784 782 780 778 777 776 774 773 772 771 771 770 770 770 769 769 768 768 768 769 770 771 773 770 757 748 748 749 749 749 749 748 749 749 750 752 751 753 754 754 754 753 756 756 758 764 760 763 771 767 762 761 769 778 780 791 802 804 804 799 798 800 800 804 794 792 817 828 818 813 804 799 799 797 801 806 807 809 809 811 812 813 814 814
791 789 787 785 782 781 779 777 776 774 773 772 771 771 770 769 769 769 768 768 768 768 768 769 771 772 773 763 747 745 748 748 750 750 749 748 748 750 751 751 752 753 753 753 753 753 755 754 756 758 756 760 763 758 763 769 775 783 790 796 804 814 811 798 798 801 801 802 792 796 823 829 817 811 804 801 801 799 804 806 807 809 810 811 812 813 814 813
790 788 785 784 781 779 777 776 774 772 772 771 770 770 769 769 769 768 768 768 768 768 768 770 771 771 772 761 745 743 745 746 748 747 747 748 748 750 750 751 752 752 753 754 753 753 753 752 755 761 759 755 757 766 776 782 784 786 799 813 810 812 812 801 797 799 803 801 792 801 822 825 814 809 804 801 801 799 803 806 807 809 810 812 812 813 814 813
788 786 784 782 780 778 776 774 773 771 770 769 769 769 768 768 768 768 768 768 768 769 769 771 771 772 772 760 745 742 743 744 744 744 747 747 747 748 749 750 752 752 754 753 752 752 752 753 755 757 759 760 765 776 782 791 799 792 799 818 814 810 815 809 800 795 800 802 797 804 819 822 813 806 802 800 800 800 803 806 807 809 810 811 812 812 813 813
787 785 783 781 779 777 775 773 772 770 769 769 768 768 768 768 768 768 768 768 769 769 769 771 770 773 767 752 746 746 742 741 742 744 746 746 747 747 748 751 751 752 753 752 753 753 753 755 758 759 762 767 770 777 789 801 809 803 799 809 808 806 813 813 806 798 799 804 802 804 814 817 810 804 802 801 801 801 803 806 806 808 809 810 811 812 812 814
786 784 782 780 778 776 774 773 771 769 769 768 767 767 767 767 768 768 768 768 769 770 772 771 772 775 765 751 749 747 741 741 742 743 745 745 746 747 747 750 750 752 756 757 757 756 757 758 761 769 771 772 773 780 794 798 798 803 802 804 807 806 808 809 807 800 800 805 804 807 815 815 809 804 803 802 802 802 802 803 805 807 808 809 810 811 812 813
785 783 780 779 777 776 774 772 770 769 768 767 767 767 766 766 767 768 768 769 769 769 769 768 768 767 760 751 746 743 740 740 742 742 743 744 746 747 747 748 749 754 763 768 764 759 761 765 769 777 780 778 776 778 786 785 781 789 792 797 804 807 805 802 799 795 796 805 807 808 814 814 810 806 805 804 802 802 802 801 803 806 807 809 810 810 811 813
784 782 779 778 776 775 773 771 770 768 767 767 766 766 766 768 769 770 768 768 764 759 758 759 759 756 753 748 742 742 742 741 742 742 742 743 744 748 749 749 753 759 766 771 770 761 762 775 781 780 779 775 772 772 775 776 776 782 787 793 797 800 802 798 795 793 792 805 811 806 810 813 811 809 807 806 803 803 804 803 804 806 807 808 809 810 810 812
783 781 779 777 775 774 773 771 769 768 767 767 766 766 767 767 771 770 766 762 756 751 753 752 752 753 748 744 741 741 743 744 743 740 741 742 742 751 755 754 762 770 768 767 768 763 766 781 782 774 772 769 767 769 771 774 778 783 787 794 797 798 801 799 798 799 798 809 814 808 812 816 813 813 812 807 806 807 806 805 805 805 806 807 808 810 810 810
782 780 778 776 774 773 772 770 769 768 767 766 765 766 764 761 763 762 761 762 753 747 750 749 750 750 743 741 741 739 745 749 748 743 740 741 745 754 759 759 769 773 767 767 771 774 779 783 775 766 766 766 766 767 771 774 779 785 788 795 801 798 800 803 803 801 799 810 819 814 816 821 816 815 815 810 809 810 807 805 804 803 806 807 807 808 810 811
782 779 777 776 773 772 771 770 769 767 766 765 765 764 761 758 758 757 758 764 758 746 745 748 750 748 743 741 737 737 747 750 752 748 739 743 749 753 759 764 769 771 769 772 776 784 788 779 766 761 763 767 768 768 771 775 778 785 789 795 801 797 798 808 810 804 800 808 817 816 820 826 821 818 816 811 810 809 808 806 804 803 804 806 805 805 808 811
780 778 777 775 773 772 770 769 768 767 766 765 763 761 758 757 757 758 758 763 763 749 741 742 742 743 743 737 731 737 746 745 748 747 738 744 751 752 758 763 768 772 771 771 774 781 782 767 756 760 763 766 770 769 771 778 782 784 784 786 795 794 791 799 806 806 806 811 813 816 829 834 827 825 821 813 811 811 810 809 808 806 804 804 804 804 806 808
779 778 776 773 772 771 770 769 767 766 766 764 762 758 757 757 755 756 760 768 770 754 741 739 738 739 736 732 732 735 742 742 742 741 736 740 748 753 757 758 765 774 772 769 774 779 773 757 754 762 765 765 770 771 769 774 782 786 780 774 780 786 788 795 801 807 820 826 817 816 835 843 831 828 826 818 816 815 814 813 812 811 807 805 806 805 805 806
778 777 774 773 771 770 769 767 765 766 765 762 760 757 757 757 755 755 762 777 778 759 747 745 742 741 734 734 733 734 747 749 736 733 735 737 740 746 758 759 760 768 767 765 770 772 764 753 754 761 764 766 770 770 764 765 779 786 774 765 771 779 787 796 797 807 824 824 811 808 827 843 838 832 827 821 821 821 817 816 814 813 810 808 807 806 805 806
778 776 774 773 770 769 768 766 766 766 764 761 759 758 757 756 756 754 765 790 785 758 751 750 744 742 736 734 732 740 759 752 735 735 734 736 738 741 758 763 761 762 757 761 773 767 755 754 757 759 762 767 770 769 759 757 773 776 760 759 772 777 784 791 792 803 810 806 809 807 811 834 843 834 826 822 825 825 820 818 815 812 811 810 808 806 805 805
777 775 773 772 770 769 767 766 767 764 762 761 757 758 757 755 756 756 776 803 786 753 749 748 740 738 734 733 733 741 749 742 746 747 730 732 739 742 759 762 760 763 753 763 779 765 749 754 758 757 763 768 765 759 751 752 765 762 750 756 767 770 776 783 788 799 799 806 825 816 804 831 847 833 825 824 827 829 821 817 815 812 811 810 809 807 804 803
776 774 772 771 770 769 767 767 765 762 760 758 757 758 755 755 756 762 786 800 776 751 749 745 741 740 737 737 739 740 740 739 749 746 731 736 739 741 756 756 755 761 755 760 770 760 748 746 746 751 760 762 754 746 743 749 758 751 749 758 764 769 775 781 791 800 806 819 831 818 806 832 849 835 828 828 827 826 820 815 813 810 809 809 809 808 805 803
774 773 771 770 769 767 767 765 762 761 759 757 758 756 754 757 763 780 799 791 768 755 749 746 746 744 743 747 748 744 744 744 743 740 739 742 740 740 747 746 749 758 758 757 759 755 745 736 736 743 748 747 743 740 738 743 747 745 753 765 775 783 782 786 793 799 820 832 821 810 806 822 843 838 826 822 816 813 814 815 813 810 809 809 808 807 805 804
773 771 770 768 767 766 766 763 760 760 759 758 758 754 757 763 771 793 800 775 762 759 751 750 749 743 746 753 754 749 748 748 743 746 749 746 748 751 751 752 756 761 764 762 757 752 746 743 741 735 732 733 738 740 736 735 737 744 758 770 788 800 796 803 808 808 834 838 809 801 802 809 832 832 816 810 804 802 807 811 811 809 808 808 807 806 804 803
771 770 768 767 765 764 764 762 759 759 759 758 757 755 764 776 783 793 785 765 766 764 753 753 750 745 748 750 753 751 750 751 746 748 752 752 757 758 758 762 763 771 778 770 763 758 751 747 741 733 727 727 738 747 743 739 739 748 762 774 797 815 817 829 834 828 837 826 795 793 800 809 822 815 804 804 800 799 800 801 803 804 806 807 806 805 803 802
770 768 767 765 763 762 761 759 758 759 759 757 757 757 769 788 792 784 774 769 769 758 747 748 746 746 749 752 754 751 750 752 748 748 750 752 760 759 757 757 757 770 779 772 770 768 761 749 738 738 734 725 733 750 755 753 749 753 764 775 796 816 827 840 838 830 828 812 791 788 796 815 824 810 800 800 797 796 797 798 800 801 803 805 805 805 805 804
767 766 765 763 761 760 758 758 758 758 758 757 761 765 777 793 788 775 772 769 760 749 745 747 747 748 751 754 754 750 753 755 748 750 753 755 763 764 760 758 755 761 768 771 772 771 775 768 747 742 739 729 732 742 748 751 752 754 753 760 779 793 806 822 823 819 817 808 800 797 805 824 828 814 802 797 793 794 796 798 800 801 802 804 807 808 809 810
766 765 764 761 760 758 757 758 757 757 759 760 765 776 788 794 784 774 771 761 752 751 747 744 748 754 755 754 751 747 751 756 750 751 757 761 768 767 763 761 758 757 765 774 771 767 775 768 744 732 729 728 735 734 732 743 755 754 748 757 771 771 775 789 795 795 799 809 815 816 823 825 818 809 801 796 796 795 796 799 800 803 802 803 807 809 811 813
764 763 762 760 758 756 756 757 757 758 759 763 775 785 787 783 776 770 763 754 753 754 751 750 753 760 763 758 754 750 747 749 752 756 760 762 768 768 763 762 759 758 764 770 769 769 775 765 743 733 729 726 732 732 729 742 756 755 756 764 762 755 760 775 786 785 792 817 828 827 832 826 815 813 804 799 802 799 799 800 802 806 805 804 807 808 812 814
764 762 761 759 756 755 755 756 757 759 760 768 783 786 777 769 763 760 755 750 751 750 755 765 763 763 771 768 763 757 750 749 752 758 762 765 770 770 766 763 759 757 759 761 764 766 772 769 749 738 739 731 724 729 731 733 742 755 766 762 751 752 757 765 786 798 806 828 835 831 837 834 829 826 813 807 809 805 803 804 805 809 808 808 809 808 811 811
764 763 761 757 754 754 754 755 756 759 762 773 784 779 770 765 757 752 751 749 751 752 760 772 767 761 768 775 773 764 759 762 761 760 765 771 775 772 767 765 760 755 753 753 760 759 762 771 757 739 742 736 724 734 745 738 735 746 755 749 752 771 775 770 783 800 817 839 844 840 840 834 831 829 820 816 814 810 809 808 808 811 811 811 811 810 810 810
764 765 763 755 752 753 753 755 756 760 768 779 784 776 766 762 754 749 750 748 751 757 763 768 765 761 764 771 775 767 764 770 770 767 773 779 778 770 765 766 762 757 751 750 759 759 756 769 768 746 738 739 736 745 759 756 744 742 746 748 754 767 772 772 774 784 808 834 844 847 847 835 826 823 820 820 817 815 815 812 812 814 813 813 813 812 812 811
764 769 765 753 751 753 751 754 759 765 774 779 778 771 764 760 755 750 748 748 751 757 762 764 763 765 766 766 769 768 766 771 772 773 777 778 777 771 764 764 763 759 753 750 756 758 755 766 773 756 741 746 753 754 758 759 755 754 757 761 762 760 762 767 770 773 793 820 837 848 851 837 821 816 817 819 819 819 817 814 816 816 814 815 815 814 814 813
766 772 766 751 751 753 752 760 766 770 775 775 771 768 763 759 758 753 749 748 751 753 756 760 763 765 767 767 768 767 768 773 774 775 777 775 778 777 768 763 764 761 757 757 759 761 762 768 775 767 756 758 758 749 745 748 750 755 760 762 763 763 767 780 787 782 784 803 819 831 842 838 820 813 815 815 816 818 817 816 817 816 816 817 817 816 816 815
770 774 763 750 753 753 755 767 770 769 773 772 766 764 760 758 759 758 753 751 753 753 752 757 761 763 766 767 767 767 771 777 777 776 778 777 776 777 769 761 761 760 760 765 765 761 761 769 777 772 762 759 753 742 741 742 741 747 753 754 756 760 766 779 791 791 791 799 804 813 834 838 820 811 815 815 814 816 818 820 819 818 817 818 819 818 817 817
773 771 756 748 752 752 759 773 773 770 771 765 760 760 759 759 762 761 758 757 758 757 758 760 762 764 766 765 767 769 773 778 779 776 777 777 773 771 766 761 760 760 762 768 768 759 760 773 781 776 765 757 749 741 741 740 742 751 754 751 754 758 760 765 772 780 795 806 805 816 838 838 820 813 814 816 816 815 817 820 819 819 819 819 821 821 820 819
774 769 757 751 750 751 763 775 775 772 769 762 762 763 760 760 762 762 764 763 761 761 764 765 764 765 766 764 767 771 773 779 781 775 774 777 773 767 764 760 760 762 765 769 768 762 767 778 783 783 782 778 771 767 762 755 753 760 760 754 755 757 757 763 768 775 794 806 803 816 838 835 820 816 816 816 818 817 817 818 817 818 819 820 822 822 822 821
773 770 762 754 749 752 762 767 767 769 768 765 767 767 765 764 762 762 764 764 761 762 766 766 762 763 764 764 768 771 771 776 780 776 774 776 772 767 764 762 762 763 764 765 762 761 770 779 781 789 798 802 801 796 786 775 767 765 762 757 757 757 757 764 773 783 798 805 802 812 831 833 823 819 819 819 818 819 819 819 818 819 820 821 822 823 823 822
776 776 771 762 755 755 759 759 760 765 767 768 770 768 769 771 765 760 762 764 762 762 764 765 761 763 767 768 774 779 776 774 776 776 776 778 775 769 765 764 764 763 762 762 759 761 772 779 781 787 793 794 794 787 777 772 772 772 767 762 760 759 758 763 775 788 797 804 810 811 815 827 830 824 822 821 819 819 820 820 821 821 821 822 822 823 824 823
779 780 778 777 771 765 763 761 761 765 765 767 772 771 770 772 770 765 763 765 765 763 765 765 764 768 772 772 777 784 782 777 777 779 779 779 776 771 767 766 767 765 763 762 761 765 778 784 781 783 784 781 778 773 767 767 772 772 770 767 766 763 760 763 774 785 788 800 819 815 807 820 829 822 820 821 819 819 820 819 821 821 822 823 823 823 824 824
780 780 776 778 779 775 771 766 763 765 765 766 770 772 772 773 775 774 771 767 765 765 769 772 770 770 772 772 777 784 785 784 784 784 783 781 780 777 774 772 770 768 766 766 765 770 784 789 782 779 781 776 772 769 765 766 771 771 770 770 769 767 766 767 776 780 779 791 811 813 809 816 818 814 815 815 815 817 818 817 818 819 820 822 822 824 825 825
780 781 776 774 777 777 773 766 763 765 767 768 771 773 775 777 778 777 774 773 772 769 772 780 780 774 772 772 776 784 789 790 792 789 785 784 784 784 784 781 776 771 770 772 771 773 784 790 783 780 781 776 772 771 766 767 771 772 772 770 769 769 768 770 776 778 778 788 799 805 811 813 808 807 809 808 809 812 813 815 816 817 820 821 822 824 826 827
784 785 782 778 778 774 770 767 766 769 769 770 774 774 775 778 779 777 774 777 782 779 775 782 783 778 778 777 779 786 789 787 791 790 785 786 787 786 788 788 783 777 775 778 778 776 783 790 783 781 784 781 775 773 770 770 772 774 774 771 769 771 772 774 780 782 786 797 800 803 814 816 806 803 805 805 807 810 813 817 817 818 820 820 822 825 826 828
785 785 783 785 784 776 772 772 771 773 775 774 776 776 776 779 779 778 776 775 780 782 780 781 782 779 781 782 783 787 785 782 785 784 780 783 785 783 784 784 782 783 783 783 783 780 785 790 785 785 792 789 780 780 777 771 772 777 780 777 774 775 776 777 781 781 787 800 806 810 817 816 805 802 805 806 808 812 816 817 818 820 820 820 823 825 827 829
784 783 781 785 786 780 778 778 775 776 778 775 774 774 777 779 776 777 782 779 775 778 779 779 779 781 786 788 787 785 781 778 779 777 775 777 777 776 778 778 778 782 785 786 787 787 788 791 791 794 799 795 788 785 777 774 786 793 788 781 777 775 775 778 781 781 781 789 801 810 811 806 801 802 806 809 811 813 816 816 818 820 821 821 823 824 827 829